Location: Cubitt Town
(51.4833°N, 0.0000°E)
Time: 23:39:44
(UTC+00:00)

Cosmos 1933 - Pass Details

Date: 15 May 2026
Orbit: 508 x 512 km, 82.5° (Epoch: 11 June)

Event Time Altitude Azimuth Distance (km) Brightness Sun altitude
Exits shadow 21:20:16 - 191° (SSW) 1,950 5.7 -11.7°
Reaches altitude 10° 21:20:48 10° 192° (SSW) 1,730 5.5 -11.7°
Maximum altitude 21:24:36 83° 279° (W) 523 3.2 -12.1°
Drops below altitude 10° 21:28:26 10° 9° (N) 1,748 6.6 -12.4°
Sets 21:30:35 0° 10° (N) 2,640 7.5 -12.6°
